Total_Precipitation_Accumulation
3.32 3.35 3.29 3.28 2.97 3.04 3.27 3.63 3.50 3.70 3.67 3.24 2.77 2.61 2.59 2.61 2.55 2.65 2.95 2.97 2.77 2.86 3.67 4.16 4.03 3.69 3.22 2.72 2.43 2.26 2.18 1.97 1.74 1.50 1.41 1.52 1.52 1.49 1.38 1.17 1.04 0.89 0.72
3.65 3.67 3.59 3.52 3.15 3.04 3.36 3.70 3.70 4.23 4.11 3.90 3.35 2.99 2.79 2.75 2.71 2.80 3.14 3.34 3.24 3.20 3.68 4.28 4.53 4.46 4.00 3.41 2.90 2.58 2.51 2.41 2.16 1.74 1.56 1.65 1.69 1.60 1.54 1.38 1.16 0.99 0.79
3.85 3.73 3.68 3.51 3.43 3.36 3.53 3.63 3.76 4.19 3.95 3.89 3.75 3.40 3.18 2.95 2.77 2.99 3.37 3.73 3.35 3.26 3.64 4.16 4.60 4.60 4.42 4.11 3.55 3.13 2.79 2.56 2.38 2.04 1.72 1.58 1.61 1.56 1.50 1.42 1.26 1.03 0.78
3.87 3.94 3.68 3.47 3.56 3.51 3.71 4.04 4.05 4.15 4.28 4.20 3.97 3.65 3.47 3.37 2.92 2.97 3.12 3.31 3.56 3.07 3.50 4.18 4.46 4.23 4.31 4.53 4.46 4.17 3.65 3.01 2.69 2.36 2.02 1.79 1.72 1.62 1.50 1.41 1.30 1.09 0.81
3.65 4.01 3.84 3.82 3.74 3.95 3.86 3.54 4.15 4.36 4.36 4.26 3.67 3.63 3.24 3.21 3.14 2.90 3.01 3.07 3.28 3.24 3.32 3.46 4.06 3.89 4.13 4.70 5.01 5.10 4.78 4.10 3.37 2.90 2.52 2.23 2.08 1.82 1.59 1.45 1.31 1.08 0.85
3.60 3.93 3.72 3.68 3.85 4.24 4.32 4.18 4.45 4.37 4.22 4.28 3.58 3.39 3.09 2.80 2.80 2.78 2.59 2.83 2.89 2.62 2.86 3.13 3.56 3.03 3.30 3.83 4.37 5.02 5.38 5.27 4.52 3.70 3.31 3.06 2.85 2.37 1.85 1.56 1.34 1.15 0.96
3.44 3.86 3.55 3.94 3.98 4.17 4.31 4.25 4.47 4.39 4.17 4.28 4.24 3.65 3.02 2.61 2.53 2.35 2.36 2.59 2.50 2.55 2.90 3.39 3.67 3.54 3.13 3.07 3.36 4.11 5.04 5.60 5.34 4.59 4.14 3.86 3.61 3.09 2.33 1.90 1.52 1.24 1.10
3.21 3.35 3.89 3.86 3.97 4.19 4.24 4.17 4.23 4.03 3.75 4.10 4.41 4.24 3.51 3.04 2.58 2.11 2.35 2.37 2.50 2.79 2.82 2.88 3.33 3.70 3.50 3.52 3.07 3.06 4.19 5.29 5.77 5.54 5.16 4.77 4.35 3.59 2.84 2.33 1.82 1.45 1.28
3.27 3.41 3.68 3.77 3.85 3.74 3.98 4.15 3.96 3.91 3.80 3.83 4.07 4.32 3.86 3.23 2.71 2.37 2.23 2.29 2.65 2.89 2.75 2.70 2.69 2.96 3.04 3.52 3.66 3.10 3.26 3.71 4.56 5.63 6.03 5.82 4.98 3.83 3.10 2.68 2.30 1.83 1.48
3.02 3.14 3.31 3.51 3.66 3.57 3.74 3.61 3.67 3.85 3.88 3.69 3.81 3.75 3.67 3.46 3.28 2.83 2.42 2.30 2.53 2.63 2.61 2.39 2.40 2.73 2.90 3.38 3.54 2.93 2.60 2.55 2.93 4.13 5.30 5.54 5.05 4.04 3.32 3.09 3.02 2.60 1.96
2.81 2.79 3.01 3.26 3.43 3.31 3.28 3.47 3.79 3.73 3.63 3.59 3.72 3.76 3.93 3.76 3.42 3.26 2.88 2.61 2.46 2.21 2.28 2.31 2.29 2.40 2.64 3.04 3.22 2.68 2.52 2.29 2.22 2.62 3.41 4.04 4.31 4.02 3.56 3.46 3.71 3.67 3.19
2.75 2.67 2.78 3.13 3.23 3.16 3.13 3.23 3.31 3.36 3.40 3.58 3.58 3.50 3.74 3.75 3.58 3.61 3.21 2.84 2.55 2.08 2.01 2.08 2.18 2.31 2.45 2.64 2.39 2.25 2.36 2.17 2.02 2.04 2.31 2.78 3.26 3.52 3.44 3.54 3.86 4.13 4.12
2.67 2.66 2.65 2.81 2.74 2.74 2.83 3.07 3.10 3.05 3.11 3.24 3.22 3.26 3.25 3.16 3.24 3.40 3.35 2.89 2.53 2.03 1.99 1.89 1.91 2.13 2.12 2.44 2.49 2.34 2.18 2.05 1.91 1.89 1.96 2.08 2.38 2.69 2.99 3.22 3.63 4.05 4.27
2.59 2.54 2.48 2.43 2.36 2.38 2.44 2.80 2.89 2.83 2.94 2.96 2.89 3.15 2.98 2.82 2.98 3.00 3.09 3.21 2.95 2.59 2.49 2.25 1.88 1.90 2.09 2.29 2.39 2.32 2.02 2.03 1.89 1.82 1.82 1.84 1.94 2.09 2.30 2.55 2.83 3.07 3.36
2.22 2.29 2.28 2.20 2.16 2.25 2.40 2.52 2.53 2.53 2.69 2.66 2.71 2.78 2.60 2.59 2.69 2.72 2.89 3.16 3.24 3.01 2.86 2.65 2.23 1.99 2.04 2.23 2.50 2.25 2.14 2.03 1.87 1.78 1.68 1.64 1.65 1.71 1.78 1.90 2.09 2.27 2.38
2.23 2.15 2.10 2.02 2.03 2.09 2.16 2.33 2.28 2.36 2.36 2.35 2.51 2.57 2.52 2.48 2.63 2.57 2.61 2.83 3.05 3.12 2.91 2.63 2.38 2.07 2.12 2.04 2.26 2.19 2.19 2.12 1.88 1.71 1.55 1.45 1.45 1.51 1.60 1.67 1.72 1.84 1.88
2.31 2.28 2.21 2.16 2.02 1.96 2.04 2.13 2.00 2.13 2.14 2.14 2.13 2.20 2.23 2.38 2.53 2.50 2.55 2.60 2.87 3.15 3.06 2.84 2.61 2.43 2.33 2.29 2.13 2.07 1.98 1.88 1.70 1.59 1.39 1.30 1.30 1.33 1.38 1.46 1.55 1.66 1.74
1.97 1.99 1.95 1.96 1.95 2.03 2.13 2.04 1.98 2.01 2.09 2.05 2.12 2.27 2.15 2.31 2.47 2.41 2.51 2.52 2.69 3.02 3.16 3.26 3.22 2.92 2.65 2.51 2.44 2.23 1.85 1.69 1.72 1.67 1.48 1.33 1.26 1.25 1.24 1.27 1.36 1.50 1.61
1.93 1.90 1.89 1.89 1.91 2.09 2.21 2.16 2.13 2.20 2.22 2.10 2.19 2.23 2.11 2.23 2.29 2.31 2.37 2.42 2.59 2.80 3.07 3.05 3.10 3.01 2.85 2.60 2.70 2.42 2.11 2.05 1.68 1.62 1.54 1.38 1.29 1.25 1.21 1.23 1.28 1.32 1.40
1.99 2.04 2.04 1.99 2.00 1.95 1.99 2.13 2.27 2.26 2.23 2.13 2.12 2.04 1.91 1.91 1.99 2.16 2.15 2.28 2.51 2.72 2.90 2.84 2.90 2.99 3.06 3.05 3.08 2.84 2.65 2.42 2.05 1.65 1.65 1.46 1.38 1.28 1.17 1.12 1.14 1.20 1.31
1.92 2.12 2.14 2.10 2.08 1.98 1.86 1.95 2.06 2.01 2.05 2.02 1.96 1.78 1.58 1.61 1.69 1.76 1.71 2.05 2.36 2.49 2.58 2.65 2.75 2.94 3.08 3.30 3.12 2.99 2.87 2.81 2.51 2.09 2.03 1.67 1.52 1.32 1.15 1.11 1.13 1.14 1.20
2.02 2.07 2.02 2.03 1.94 1.67 1.73 1.69 1.66 1.71 1.78 1.81 1.84 1.81 1.64 1.50 1.42 1.44 1.42 1.59 1.92 2.07 2.27 2.54 2.67 2.88 2.98 3.02 3.20 3.18 3.13 2.99 2.72 2.40 2.38 2.29 2.11 1.94 1.65 1.34 1.25 1.11 1.06
1.96 1.86 1.80 1.81 1.77 1.70 1.56 1.38 1.35 1.46 1.64 1.72 1.76 1.78 1.53 1.38 1.42 1.29 1.37 1.44 1.46 1.54 1.71 2.09 2.37 2.48 2.54 2.61 2.93 3.04 3.04 2.93 2.85 2.70 2.74 2.71 2.56 2.30 1.88 1.65 1.55 1.30 1.17
1.82 1.83 1.72 1.71 1.80 1.70 1.60 1.36 1.26 1.23 1.43 1.48 1.47 1.48 1.50 1.48 1.40 1.45 1.44 1.42 1.33 1.33 1.40 1.44 1.61 1.83 2.11 2.37 2.58 2.79 3.06 3.02 2.95 2.87 2.85 2.93 2.75 2.60 2.21 1.91 1.76 1.51 1.40
1.77 1.77 1.76 1.79 1.79 1.73 1.67 1.44 1.33 1.32 1.44 1.46 1.48 1.49 1.56 1.62 1.62 1.48 1.42 1.44 1.45 1.48 1.43 1.45 1.40 1.47 1.61 1.75 1.92 2.20 2.55 2.88 3.09 3.07 2.88 2.97 2.91 2.93 2.86 2.45 2.01 1.77 1.51
1.76 1.78 1.84 1.82 1.74 1.69 1.56 1.35 1.33 1.36 1.55 1.65 1.77 1.76 1.65 1.53 1.51 1.40 1.40 1.49 1.47 1.47 1.40 1.38 1.33 1.29 1.28 1.41 1.57 1.75 2.03 2.41 2.71 2.86 2.79 2.93 3.10 3.43 3.57 3.06 2.45 2.01 1.78